SWQ411 KRIC-KDTW

Flight info

Callsign SWQ411
Flight time 1h 15m
Altitude 34000
Route KALLI7 SANNY TUKEY J24 TARCI JAMOX BONZZ2
Aircraft B738/M-SDE2E3FGHIRWXY/LB1

Departure

Time 2026-04-17 02:58
Airport Richmond International Airport (KRIC)

Arrival

Time 2026-04-17 04:13
Airport Detroit Metropolitan Wayne County Airport (KDTW)
Time Latitude Longitude Altitude Speed Heading
2026-04-17 02:05 37.50156 -77.33401 169 ft 0 kts 283°
2026-04-17 02:37 37.50155 -77.33393 169 ft 4 kts 284°
2026-04-17 02:37 37.50148 -77.33360 169 ft 4 kts 289°
2026-04-17 02:38 37.50137 -77.33329 169 ft 4 kts 300°
2026-04-17 02:38 37.50121 -77.33305 169 ft 4 kts 332°
2026-04-17 02:38 37.50107 -77.33300 169 ft 0 kts 14°
2026-04-17 02:51 37.50114 -77.33298 169 ft 2 kts 14°
2026-04-17 02:51 37.50127 -77.33278 169 ft 3 kts 69°
2026-04-17 02:51 37.50130 -77.33248 169 ft 4 kts 91°
2026-04-17 02:51 37.50126 -77.33206 170 ft 6 kts 99°
2026-04-17 02:52 37.50145 -77.33133 172 ft 12 kts 37°
2026-04-17 02:52 37.50227 -77.33100 173 ft 12 kts 14°
2026-04-17 02:52 37.50308 -77.33074 173 ft 12 kts 15°
2026-04-17 02:52 37.50383 -77.33048 173 ft 12 kts 15°
2026-04-17 02:53 37.50461 -77.33022 175 ft 11 kts 14°
2026-04-17 02:53 37.50536 -77.32998 177 ft 11 kts 13°
2026-04-17 02:53 37.50610 -77.32977 177 ft 11 kts 13°
2026-04-17 02:53 37.50680 -77.32957 177 ft 10 kts 13°
2026-04-17 02:54 37.50749 -77.32937 177 ft 10 kts 13°
2026-04-17 02:54 37.50817 -77.32916 177 ft 10 kts 13°
2026-04-17 02:54 37.50883 -77.32896 176 ft 10 kts 14°
2026-04-17 02:54 37.50956 -77.32873 174 ft 11 kts 14°
2026-04-17 02:55 37.51030 -77.32849 173 ft 11 kts 14°
2026-04-17 02:55 37.51104 -77.32828 174 ft 11 kts 12°
2026-04-17 02:55 37.51179 -77.32807 175 ft 12 kts 13°
2026-04-17 02:55 37.51279 -77.32778 174 ft 17 kts 13°
2026-04-17 02:56 37.51363 -77.32753 174 ft 20 kts 15°
2026-04-17 02:56 37.51502 -77.32708 174 ft 20 kts 14°
2026-04-17 02:56 37.51631 -77.32642 174 ft 9 kts 66°
2026-04-17 02:56 37.51639 -77.32567 175 ft 8 kts 90°
2026-04-17 02:57 37.51630 -77.32495 176 ft 8 kts 117°
2026-04-17 02:57 37.51600 -77.32466 177 ft 8 kts 160°
2026-04-17 02:57 37.51535 -77.32476 178 ft 24 kts 192°
2026-04-17 02:57 37.51061 -77.32622 176 ft 116 kts 194°
2026-04-17 02:58 37.50026 -77.32932 280 ft 184 kts 193°
2026-04-17 02:58 37.48651 -77.33333 887 ft 214 kts 195°
2026-04-17 02:58 37.47342 -77.34331 1526 ft 232 kts 232°
2026-04-17 02:58 37.46839 -77.36272 2171 ft 243 kts 269°
2026-04-17 02:59 37.47031 -77.38411 2820 ft 249 kts 274°
2026-04-17 02:59 37.47207 -77.40574 3535 ft 248 kts 272°
2026-04-17 02:59 37.47310 -77.42745 4503 ft 248 kts 270°
2026-04-17 02:59 37.47356 -77.44944 5332 ft 254 kts 268°
2026-04-17 03:00 37.47355 -77.47183 6252 ft 256 kts 267°
2026-04-17 03:00 37.47325 -77.49430 7191 ft 257 kts 266°
2026-04-17 03:00 37.47279 -77.51697 8032 ft 261 kts 266°
2026-04-17 03:00 37.47226 -77.54005 8806 ft 266 kts 266°
2026-04-17 03:01 37.47208 -77.54765 9077 ft 267 kts 266°
2026-04-17 03:01 37.46987 -77.58713 10417 ft 274 kts 263°
2026-04-17 03:01 37.46792 -77.61194 10668 ft 298 kts 263°
2026-04-17 03:01 37.46580 -77.63891 10860 ft 321 kts 263°
2026-04-17 03:02 37.46125 -77.66736 11056 ft 341 kts 253°
2026-04-17 03:02 37.45370 -77.69640 11215 ft 360 kts 251°
2026-04-17 03:02 37.44537 -77.72627 11539 ft 371 kts 251°
2026-04-17 03:02 37.43661 -77.75744 12079 ft 375 kts 251°
2026-04-17 03:03 37.42810 -77.78810 12693 ft 376 kts 251°
2026-04-17 03:03 37.41955 -77.81937 13319 ft 378 kts 251°
2026-04-17 03:03 37.41095 -77.85114 13916 ft 379 kts 251°
2026-04-17 03:03 37.40248 -77.88260 14447 ft 382 kts 251°
2026-04-17 03:04 37.39392 -77.91446 14992 ft 385 kts 251°
2026-04-17 03:04 37.38546 -77.94605 15513 ft 387 kts 251°
2026-04-17 03:04 37.37684 -77.97818 16027 ft 389 kts 251°
2026-04-17 03:04 37.36817 -78.01047 16559 ft 390 kts 251°
2026-04-17 03:05 37.35945 -78.04290 17060 ft 392 kts 251°
2026-04-17 03:05 37.35068 -78.07548 17548 ft 393 kts 250°
2026-04-17 03:05 37.34187 -78.10817 17994 ft 396 kts 250°
2026-04-17 03:05 37.33298 -78.14108 18425 ft 399 kts 250°
2026-04-17 03:06 37.32404 -78.17420 18853 ft 401 kts 250°
2026-04-17 03:06 37.31503 -78.20752 19249 ft 404 kts 250°
2026-04-17 03:06 37.30596 -78.24098 19694 ft 405 kts 250°
2026-04-17 03:06 37.29861 -78.27529 20080 ft 410 kts 261°
2026-04-17 03:07 37.29924 -78.31137 20479 ft 419 kts 276°
2026-04-17 03:07 37.30721 -78.34639 20876 ft 427 kts 288°
2026-04-17 03:07 37.32197 -78.37914 21224 ft 440 kts 303°
2026-04-17 03:07 37.34301 -78.40764 21590 ft 447 kts 309°
2026-04-17 03:08 37.36524 -78.43507 21909 ft 451 kts 310°
2026-04-17 03:08 37.38828 -78.46293 22224 ft 453 kts 310°
2026-04-17 03:08 37.41103 -78.49047 22550 ft 455 kts 310°
2026-04-17 03:08 37.43358 -78.51803 22855 ft 457 kts 310°
2026-04-17 03:09 37.45628 -78.54607 23159 ft 458 kts 309°
2026-04-17 03:09 37.47898 -78.57430 23437 ft 460 kts 309°
2026-04-17 03:09 37.50176 -78.60279 23687 ft 463 kts 309°
2026-04-17 03:09 37.52463 -78.63147 23954 ft 464 kts 309°
2026-04-17 03:10 37.54756 -78.66025 24248 ft 465 kts 309°
2026-04-17 03:10 37.57048 -78.68904 24528 ft 466 kts 309°
2026-04-17 03:10 37.59350 -78.71798 24782 ft 467 kts 309°
2026-04-17 03:10 37.61659 -78.74703 25021 ft 469 kts 309°
2026-04-17 03:11 37.63973 -78.77616 25284 ft 470 kts 309°
2026-04-17 03:11 37.66297 -78.80544 25538 ft 471 kts 309°
2026-04-17 03:11 37.68614 -78.83467 25774 ft 472 kts 309°
2026-04-17 03:11 37.70935 -78.86398 26006 ft 473 kts 309°
2026-04-17 03:12 37.73231 -78.89299 26236 ft 474 kts 309°
2026-04-17 03:12 37.75559 -78.92241 26562 ft 472 kts 309°
2026-04-17 03:12 37.77876 -78.95172 26911 ft 470 kts 309°
2026-04-17 03:12 37.80183 -78.98096 27265 ft 468 kts 309°
2026-04-17 03:13 37.82474 -79.01001 27631 ft 467 kts 309°
2026-04-17 03:13 37.84763 -79.03908 28012 ft 464 kts 309°
2026-04-17 03:13 37.87005 -79.06824 28380 ft 459 kts 305°
2026-04-17 03:13 37.88869 -79.10056 28643 ft 452 kts 295°
2026-04-17 03:14 37.90312 -79.13555 28966 ft 446 kts 289°
2026-04-17 03:14 37.91358 -79.17223 29330 ft 439 kts 280°
2026-04-17 03:14 37.92036 -79.20986 29674 ft 436 kts 278°
2026-04-17 03:14 37.92670 -79.24723 30022 ft 435 kts 278°
2026-04-17 03:15 37.93298 -79.28433 30334 ft 435 kts 278°
2026-04-17 03:15 37.93940 -79.32170 30691 ft 433 kts 278°
2026-04-17 03:15 37.94587 -79.35876 31077 ft 432 kts 279°
2026-04-17 03:15 37.95244 -79.39605 31456 ft 429 kts 279°
2026-04-17 03:16 37.95896 -79.43294 31775 ft 429 kts 279°
2026-04-17 03:16 37.96545 -79.46968 32144 ft 426 kts 279°
2026-04-17 03:16 37.97190 -79.50632 32497 ft 425 kts 279°
2026-04-17 03:16 37.97827 -79.54255 32846 ft 422 kts 279°
2026-04-17 03:17 37.98463 -79.57879 33200 ft 420 kts 279°
2026-04-17 03:17 37.99098 -79.61505 33494 ft 420 kts 279°
2026-04-17 03:17 37.99731 -79.65111 33766 ft 419 kts 279°
2026-04-17 03:17 38.00369 -79.68719 34078 ft 418 kts 279°
2026-04-17 03:18 38.01650 -79.75963 34106 ft 420 kts 279°
2026-04-17 03:18 38.02919 -79.83154 34113 ft 417 kts 279°
2026-04-17 03:19 38.04177 -79.90333 34124 ft 416 kts 279°
2026-04-17 03:19 38.05420 -79.97437 34113 ft 414 kts 279°
2026-04-17 03:20 38.06680 -80.04612 34111 ft 417 kts 279°
2026-04-17 03:20 38.07914 -80.11809 34112 ft 416 kts 279°
2026-04-17 03:21 38.09143 -80.18951 34099 ft 417 kts 279°
2026-04-17 03:21 38.10380 -80.26151 34088 ft 417 kts 278°
2026-04-17 03:22 38.11614 -80.33351 34083 ft 417 kts 278°
2026-04-17 03:22 38.12837 -80.40552 34097 ft 417 kts 278°
2026-04-17 03:23 38.14040 -80.47748 34090 ft 416 kts 278°
2026-04-17 03:23 38.15233 -80.54907 34089 ft 417 kts 278°
2026-04-17 03:24 38.16432 -80.62128 34084 ft 417 kts 277°
2026-04-17 03:24 38.17629 -80.69354 34080 ft 417 kts 277°
2026-04-17 03:25 38.18823 -80.76594 34075 ft 417 kts 277°
2026-04-17 03:25 38.20005 -80.83767 34071 ft 417 kts 277°
2026-04-17 03:26 38.21196 -80.90977 34078 ft 416 kts 276°
2026-04-17 03:26 38.22383 -80.98186 34072 ft 416 kts 276°
2026-04-17 03:27 38.23563 -81.05397 34065 ft 415 kts 276°
2026-04-17 03:27 38.24735 -81.12580 34064 ft 414 kts 275°
2026-04-17 03:28 38.25895 -81.19721 34068 ft 414 kts 275°
2026-04-17 03:28 38.27665 -81.26743 34074 ft 431 kts 294°
2026-04-17 03:29 38.29570 -81.29770 34059 ft 447 kts 307°
2026-04-17 03:29 38.32048 -81.32272 34050 ft 464 kts 321°
2026-04-17 03:29 38.35062 -81.33942 34078 ft 479 kts 333°
2026-04-17 03:29 38.38264 -81.35215 34047 ft 483 kts 335°
2026-04-17 03:30 38.44750 -81.37525 34030 ft 484 kts 336°
2026-04-17 03:30 38.51213 -81.39844 34032 ft 484 kts 335°
2026-04-17 03:31 38.57694 -81.42270 34039 ft 483 kts 335°
2026-04-17 03:31 38.64132 -81.44726 34041 ft 482 kts 335°
2026-04-17 03:32 38.70526 -81.47174 34035 ft 482 kts 335°
2026-04-17 03:32 38.76961 -81.49640 34028 ft 482 kts 335°
2026-04-17 03:33 38.83397 -81.52107 34030 ft 482 kts 335°
2026-04-17 03:33 38.89792 -81.54562 34019 ft 482 kts 335°
2026-04-17 03:34 38.96206 -81.57029 34029 ft 481 kts 335°
2026-04-17 03:34 39.02632 -81.59505 34019 ft 480 kts 335°
2026-04-17 03:35 39.09042 -81.61982 34012 ft 480 kts 335°
2026-04-17 03:35 39.15409 -81.64447 34003 ft 480 kts 335°
2026-04-17 03:36 39.24990 -81.68161 34013 ft 478 kts 335°
2026-04-17 03:37 39.31379 -81.70646 34008 ft 478 kts 336°
2026-04-17 03:37 39.37688 -81.73104 34009 ft 478 kts 336°
2026-04-17 03:38 39.44063 -81.75592 34010 ft 477 kts 336°
2026-04-17 03:38 39.49344 -81.77656 34007 ft 476 kts 336°
2026-04-17 03:39 39.56729 -81.80550 33998 ft 475 kts 336°
2026-04-17 03:39 39.62007 -81.82622 34001 ft 475 kts 336°
2026-04-17 03:40 39.68322 -81.85105 34001 ft 475 kts 336°
2026-04-17 03:40 39.74776 -81.87167 34004 ft 481 kts 345°
2026-04-17 03:41 39.81440 -81.88271 34001 ft 483 kts 347°
2026-04-17 03:41 39.88145 -81.89290 33994 ft 483 kts 347°
2026-04-17 03:42 39.94767 -81.90410 34002 ft 482 kts 346°
2026-04-17 03:42 40.01426 -81.91604 34000 ft 482 kts 346°
2026-04-17 03:43 40.08016 -81.92796 33998 ft 481 kts 346°
2026-04-17 03:43 40.14655 -81.93996 34005 ft 480 kts 346°
2026-04-17 03:44 40.21297 -81.95194 34017 ft 480 kts 346°
2026-04-17 03:44 40.27916 -81.96389 34018 ft 481 kts 346°
2026-04-17 03:45 40.34555 -81.97590 34029 ft 481 kts 346°
2026-04-17 03:45 40.41142 -81.98786 34027 ft 481 kts 346°
2026-04-17 03:46 40.47796 -81.99995 34018 ft 482 kts 346°
2026-04-17 03:46 40.54401 -82.01198 34013 ft 480 kts 346°
2026-04-17 03:47 40.60884 -82.03048 34014 ft 473 kts 339°
2026-04-17 03:47 40.67219 -82.05390 34005 ft 471 kts 339°
2026-04-17 03:48 40.73505 -82.07640 34001 ft 470 kts 340°
2026-04-17 03:48 40.79837 -82.09815 34003 ft 468 kts 340°
2026-04-17 03:49 40.86131 -82.11965 33996 ft 466 kts 340°
2026-04-17 03:49 40.92321 -82.14086 33973 ft 444 kts 340°
2026-04-17 03:49 40.95261 -82.15092 33969 ft 429 kts 340°
2026-04-17 03:50 40.98119 -82.16071 33978 ft 418 kts 340°
2026-04-17 03:50 41.03678 -82.17991 33969 ft 403 kts 340°
2026-04-17 03:50 41.06383 -82.18923 33957 ft 390 kts 340°
2026-04-17 03:51 41.08997 -82.19827 33727 ft 383 kts 339°
2026-04-17 03:51 41.11591 -82.20730 33076 ft 389 kts 340°
2026-04-17 03:51 41.14260 -82.21663 31870 ft 407 kts 340°
2026-04-17 03:51 41.17048 -82.22637 30438 ft 430 kts 340°
2026-04-17 03:52 41.20024 -82.23670 29257 ft 444 kts 341°
2026-04-17 03:52 41.22899 -82.25013 28781 ft 430 kts 327°
2026-04-17 03:52 41.25311 -82.27158 28672 ft 409 kts 318°
2026-04-17 03:52 41.27529 -82.29485 28262 ft 402 kts 316°
2026-04-17 03:53 41.29671 -82.31799 27664 ft 401 kts 316°
2026-04-17 03:53 41.31836 -82.34141 27059 ft 400 kts 316°
2026-04-17 03:53 41.34009 -82.36469 26517 ft 398 kts 317°
2026-04-17 03:53 41.36169 -82.38759 25988 ft 395 kts 317°
2026-04-17 03:54 41.38316 -82.41024 25467 ft 393 kts 317°
2026-04-17 03:54 41.40466 -82.43286 24951 ft 390 kts 317°
2026-04-17 03:54 41.42587 -82.45518 24450 ft 387 kts 317°
2026-04-17 03:54 41.44698 -82.47741 23932 ft 385 kts 317°
2026-04-17 03:55 41.46800 -82.49957 23415 ft 382 kts 317°
2026-04-17 03:55 41.48879 -82.52151 22918 ft 380 kts 317°
2026-04-17 03:55 41.50922 -82.54308 22456 ft 376 kts 317°
2026-04-17 03:55 41.52967 -82.56468 21987 ft 373 kts 317°
2026-04-17 03:56 41.54996 -82.58614 21518 ft 370 kts 317°
2026-04-17 03:56 41.57011 -82.60748 21040 ft 368 kts 317°
2026-04-17 03:56 41.59011 -82.62867 20573 ft 365 kts 317°
2026-04-17 03:56 41.60997 -82.64974 20094 ft 362 kts 317°
2026-04-17 03:57 41.62936 -82.67032 19628 ft 360 kts 317°
2026-04-17 03:57 41.64898 -82.69117 19158 ft 358 kts 317°
2026-04-17 03:57 41.66833 -82.71175 18775 ft 353 kts 317°
2026-04-17 03:57 41.68751 -82.73217 18411 ft 350 kts 317°
2026-04-17 03:58 41.70649 -82.75238 18057 ft 348 kts 318°
2026-04-17 03:58 41.72534 -82.77247 17705 ft 344 kts 318°
2026-04-17 03:58 41.74409 -82.79247 17364 ft 345 kts 318°
2026-04-17 03:58 41.76184 -82.81406 17010 ft 344 kts 311°
2026-04-17 03:59 41.77797 -82.83762 16663 ft 341 kts 309°
2026-04-17 03:59 41.79354 -82.86136 16315 ft 338 kts 308°
2026-04-17 03:59 41.80893 -82.88474 15977 ft 336 kts 309°
2026-04-17 03:59 41.82449 -82.90805 15637 ft 334 kts 309°
2026-04-17 04:00 41.84013 -82.93117 15292 ft 333 kts 310°
2026-04-17 04:00 41.85577 -82.95413 14953 ft 331 kts 310°
2026-04-17 04:00 41.87128 -82.97688 14629 ft 329 kts 310°
2026-04-17 04:00 41.88647 -82.99922 14292 ft 327 kts 310°
2026-04-17 04:01 41.90175 -83.02183 13964 ft 325 kts 310°
2026-04-17 04:01 41.91686 -83.04424 13634 ft 324 kts 310°
2026-04-17 04:01 41.93195 -83.06663 13305 ft 322 kts 310°
2026-04-17 04:01 41.94702 -83.08901 12975 ft 320 kts 310°
2026-04-17 04:02 41.96195 -83.11121 12651 ft 319 kts 310°
2026-04-17 04:02 41.97679 -83.13331 12331 ft 318 kts 310°
2026-04-17 04:02 41.99159 -83.15533 12007 ft 317 kts 310°
2026-04-17 04:02 42.00625 -83.17715 11685 ft 312 kts 310°
2026-04-17 04:03 42.02052 -83.19841 11370 ft 307 kts 311°
2026-04-17 04:03 42.03467 -83.21951 11053 ft 299 kts 311°
2026-04-17 04:03 42.04829 -83.23963 10877 ft 283 kts 312°
2026-04-17 04:03 42.06162 -83.25902 10542 ft 281 kts 313°
2026-04-17 04:04 42.07734 -83.27433 10264 ft 280 kts 336°
2026-04-17 04:04 42.09630 -83.27931 10026 ft 280 kts 358°
2026-04-17 04:04 42.11539 -83.27477 9755 ft 281 kts 19°
2026-04-17 04:04 42.13271 -83.26261 9511 ft 280 kts 27°
2026-04-17 04:05 42.14937 -83.24927 9237 ft 277 kts 28°
2026-04-17 04:05 42.16583 -83.23602 8980 ft 275 kts 28°
2026-04-17 04:05 42.18225 -83.22297 8727 ft 272 kts 27°
2026-04-17 04:05 42.19848 -83.21017 8480 ft 269 kts 27°
2026-04-17 04:06 42.21454 -83.19756 8303 ft 264 kts 27°
2026-04-17 04:06 42.23012 -83.18533 8238 ft 253 kts 26°
2026-04-17 04:06 42.24625 -83.17855 8111 ft 235 kts 357°
2026-04-17 04:06 42.26159 -83.18289 7992 ft 217 kts 334°
2026-04-17 04:07 42.27401 -83.19253 7856 ft 199 kts 333°
2026-04-17 04:07 42.28752 -83.19411 7426 ft 202 kts 16°
2026-04-17 04:07 42.30002 -83.18513 7012 ft 204 kts 27°
2026-04-17 04:07 42.31230 -83.17543 6583 ft 203 kts 26°
2026-04-17 04:08 42.32448 -83.16586 6194 ft 201 kts 26°
2026-04-17 04:08 42.33664 -83.15630 5786 ft 200 kts 26°
2026-04-17 04:08 42.34918 -83.15044 5491 ft 188 kts 352°
2026-04-17 04:08 42.36021 -83.15805 5256 ft 183 kts 306°
2026-04-17 04:09 42.36314 -83.17440 5025 ft 191 kts 261°
2026-04-17 04:09 42.35744 -83.19129 4821 ft 199 kts 244°
2026-04-17 04:09 42.35028 -83.20750 4567 ft 202 kts 239°
2026-04-17 04:09 42.34234 -83.22325 4360 ft 200 kts 239°
2026-04-17 04:10 42.33470 -83.23811 4354 ft 192 kts 238°
2026-04-17 04:10 42.32705 -83.25293 4358 ft 194 kts 238°
2026-04-17 04:10 42.31915 -83.26829 4172 ft 199 kts 238°
2026-04-17 04:10 42.31130 -83.28355 3941 ft 196 kts 238°
2026-04-17 04:11 42.30208 -83.29694 3625 ft 200 kts 211°
2026-04-17 04:11 42.28920 -83.30417 3352 ft 199 kts 206°
2026-04-17 04:11 42.27628 -83.31024 3036 ft 197 kts 187°
2026-04-17 04:11 42.26329 -83.31245 2835 ft 185 kts 196°
2026-04-17 04:12 42.25076 -83.31790 2188 ft 193 kts 207°
2026-04-17 04:12 42.23823 -83.32389 1791 ft 182 kts 198°
2026-04-17 04:12 42.22632 -83.32917 1107 ft 183 kts 205°
2026-04-17 04:12 42.21551 -83.33720 652 ft 169 kts 210°
2026-04-17 04:13 42.20551 -83.34461 646 ft 144 kts 208°
2026-04-17 04:13 42.20156 -83.34754 646 ft 33 kts 216°